22:31
Airports
History
Links
Donate
Help keep this website running!
PayPal
Bitcoin
Information on this page is community maintained and may be outdated or inaccurate and is intended for reference only or PC simulator navigating.
Always use approved charts for navigating.
VT41
Moores Field
Moores Field (VT41)
Dummerston, Vermont, United States (5346)
4
Lat/Lng:42° 55' 27.29" N / 72° 31' 47.32" W
42.924248 / -72.529812
Elevation:310'ft 94mMSL
ID / ICAO:VT41
Runways:1
Longest:(03-21) 547.2m 1,795ft Grass
Distance To
Airport ID:
Nearby VORs <50NM
Nearby NDBs
Nearby WeatherUpdated 06-28-17 21:56 GMT
Nearby weather at KEEN, Dillant-hopkins located 13.2 nautical miles from VT41
Altimeter: 30.03
Visibility: 10.0 statute miles
Wind: 7 knots (300°)
Temp: 23°c 73°f
Humidity: 40.9%

METAR: KEEN 282156Z AUTO 30007KT 260V330 10SM 23/09 A3003 RMK AO2 SLP189 T02280094

(Powered by phpweather)
Runway 03 / 21
Dimensions:547.2 x 24.4m 1795' x 80'ft
Surface:Grass
Runway 03 [A]Runway 21 [B]
Heading:015°TH 195°TH
Lat:
Lng:
42° 55' 18.71"N
72° 31' 50.46"W
42° 55' 35.88"N
72° 31' 44.18"W
User Notes and Comments
Google Map
Nearby Airports
4 Santas 6.2 NM
VT06 NNE 27°
(R) Onyon 9.0 NM
VT43 NW 316°
(R) Frank D. Comerford 9.1 NM
NH39 NNE 33°
(R) Major W. Guth 9.6 NM
VT34 N 11°
4 Blodgett 11.7 NM
VT47 SSE 167°
(U) Dillant-hopkins 13.2 NM
KEEN (WX) E 97°
(U) Deerfield Valley Rgnl 17.0 NM
4V8 W 270°
VFR Chart
Flight Planning at SkyVector.com